Probability
0 0 0 0 0 0 0 0 0 0 0 0 0 0 0 0 0 0 0 0 0 0 0 0 0 0 0 0 0 0 0 0 0 0 0 0 0 0 0 0 0 0 0
0 0 0 0 0 0 0 0 0 0 0 0 0 0 0 0 0 0 0 0 0 0 0 0 0 0 0 0 0 0 0 0 0 0 0 0 0 0 0 0 0 0 0
0 0 0 0 0 0 0 0 0 0 0 0 0 0 0 0 0 0 0 0 0 0 0 0 0 0 0 0 0 0 0 0 0 0 0 0 0 0 0 0 0 0 0
0 0 0 0 0 0 0 0 0 0 0 0 0 0 0 0 0 0 0 0 0 0 0 0 0 0 0 0 0 0 0 0 0 0 0 0 0 0 0 0 0 0 0
0 0 0 0 0 0 0 0 0 0 0 0 0 0 0 0 0 0 0 0 0 0 0 0 0 0 0 0 0 0 0 0 0 0 0 0 0 0 0 0 0 0 0
0 0 0 0 0 0 0 0 0 0 0 0 0 0 0 0 0 0 0 0 0 0 0 0 0 0 0 0 0 0 0 0 0 0 0 0 0 0 0 0 0 0 0
0 0 0 0 0 0 0 0 0 0 0 0 0 0 0 0 0 0 0 0 0 0 0 0 0 0 0 0 0 0 0 0 0 0 0 0 0 0 0 0 0 0 0
0 0 0 0 0 0 0 0 0 0 0 0 0 0 0 0 0 0 0 0 0 0 0 0 0 0 0 0 0 0 0 0 0 0 0 0 0 0 0 0 0 0 0
0 0 0 0 0 0 0 0 0 0 0 0 0 0 0 0 0 0 0 0 0 0 0 0 0 0 0 0 0 0 0 0 0 0 0 0 0 0 0 0 0 0 0
0 0 0 0 0 0 0 0 0 0 0 0 0 0 0 0 0 0 0 0 0 0 0 0 0 0 0 0 0 0 0 0 0 0 0 0 0 0 0 0 0 0 0
0 0 0 0 0 0 0 0 0 0 0 0 0 0 0 0 0 0 0 0 0 0 0 0 0 0 0 0 0 0 0 0 0 0 0 0 0 0 0 0 0 0 0
0 0 0 0 0 0 0 0 0 0 0 0 0 0 0 0 0 0 0 0 0 0 0 0 0 0 0 0 0 0 0 0 0 0 0 0 0 0 0 0 0 0 0
0 0 0 0 0 0 0 0 0 0 0 0 0 0 0 0 0 0 0 0 0 0 0 0 0 0 0 0 0 0 0 0 0 0 0 0 0 0 0 0 0 0 0
0 0 0 0 0 0 0 0 0 0 0 0 0 0 0 0 0 0 0 0 0 0 0 0 0 0 0 0 0 0 0 0 0 0 0 0 0 0 0 0 0 0 0
0 0 0 0 0 0 0 0 0 0 0 0 0 0 0 0 0 0 0 0 0 0 0 0 0 0 0 0 0 0 0 0 0 0 0 0 0 0 0 0 0 0 0
0 0 0 0 0 0 0 0 0 0 0 0 0 0 0 0 0 0 0 0 0 0 0 0 0 0 0 0 0 0 0 0 0 0 0 0 0 0 0 0 0 0 0
0 0 0 0 0 0 0 0 0 0 0 0 0 0 0 0 0 0 0 0 0 0 0 0 0 0 0 0 0 0 0 0 0 0 0 0 0 0 0 0 0 0 0
0 0 0 0 0 0 0 0 0 0 0 0 0 0 0 0 0 0 0 0 0 0 0 0 0 0 0 0 0 0 0 0 0 0 0 0 0 0 0 0 0 0 0
0 0 0 0 0 0 0 0 0 0 0 0 0 0 0 0 0 0 0 0 0 0 0 0 0 0 0 0 0 0 0 0 0 0 0 0 0 0 0 0 0 0 0
0 0 0 0 0 0 0 0 0 0 0 0 0 0 0 0 0 0 0 0 0 0 0 0 0 0 0 0 0 0 0 0 0 0 0 0 0 0 0 0 0 0 0
0 0 0 0 0 0 0 0 0 0 0 0 0 0 0 0 0 0 0 0 0 0 0 0 0 0 0 0 0 0 0 0 0 0 0 0 0 0 0 0 0 0 0
0 0 0 0 0 0 0 0 0 0 0 0 0 0 0 0 0 0 0 0 0 0 0 0 0 0 0 0 0 0 0 0 0 0 0 0 0 0 0 0 0 0 0
0 0 0 0 0 0 0 0 0 0 0 0 0 0 0 0 0 0 0 0 0 0 0 0 0 0 0 0 0 0 0 0 0 0 0 0 0 0 0 0 0 0 0
0 0 0 0 0 0 0 0 0 0 0 0 0 0 0 0 0 0 0 0 0 0 0 0 0 0 0 0 0 0 0 0 0 0 0 0 0 0 0 0 0 0 0
0 0 0 0 0 0 0 0 0 0 0 0 0 0 0 0 0 0 0 0 0 0 0 0 0 0 0 0 0 0 0 0 0 0 0 0 0 0 0 0 0 0 0
0 0 0 0 0 0 0 0 0 0 0 0 0 0 0 0 0 0 0 0 0 0 0 0 0 0 0 0 0 0 0 0 0 0 0 0 0 0 0 0 0 0 0
Wind_Speed
5 5 5 4 3 3 2 2 2 2 1 1 2 2 3 4 4 4 5 5 6 6 6 7 8 8 7 7 7 7 8 8 11 10 8 9 11 11 10 10 11 11 10
5 4 4 4 3 2 2 1 1 1 1 1 2 3 3 4 5 5 5 6 6 7 7 7 7 6 8 7 7 8 8 8 10 13 10 9 11 11 11 12 10 9 10
5 4 4 3 3 2 1 1 1 0 1 1 2 3 4 4 5 5 6 6 6 7 7 7 7 8 8 7 8 8 7 7 8 10 10 9 8 8 10 10 11 9 10
4 4 4 3 3 2 1 1 0 1 1 2 3 4 4 5 5 5 5 6 6 6 7 7 8 8 8 9 8 8 8 8 8 8 9 8 8 8 8 8 9 8 9
4 4 3 3 2 2 1 1 1 1 1 2 3 4 4 4 4 5 6 6 7 7 7 8 8 9 10 9 8 8 9 8 7 8 8 8 8 7 7 7 9 9 9
4 3 3 3 2 2 1 1 1 1 2 3 3 4 4 4 5 8 8 7 7 7 8 8 8 9 10 12 13 13 12 10 9 8 8 9 10 9 8 8 8 9 9
3 3 2 2 2 1 1 1 2 2 3 3 4 4 5 5 7 8 9 8 7 7 8 8 7 7 9 9 10 13 12 13 13 11 11 11 11 10 10 10 10 10 10
3 2 2 2 1 1 1 2 2 2 3 3 4 4 5 6 8 9 9 7 7 7 8 8 8 9 8 9 9 10 10 10 11 10 10 11 11 10 10 10 11 11 10
2 2 1 1 1 1 2 2 2 2 3 3 4 5 6 6 8 9 9 6 6 7 7 8 8 9 10 11 10 10 10 9 10 12 14 14 15 15 12 8 8 7 8
2 1 1 1 2 2 2 2 2 2 3 3 4 5 6 6 8 9 9 5 6 6 6 7 8 10 11 11 9 9 10 10 9 9 10 11 10 10 12 9 7 7 7
1 1 1 1 1 1 2 2 2 2 3 3 4 5 5 6 7 8 9 5 6 6 6 6 6 10 12 12 11 9 10 11 9 9 8 8 7 7 7 7 6 6 7
1 1 1 0 1 1 1 2 2 3 3 4 4 5 4 5 6 7 9 9 9 7 6 6 7 11 12 12 10 10 12 11 7 7 7 7 6 6 6 6 7 7 7
1 1 0 0 1 1 2 2 2 2 3 3 4 4 4 4 5 8 9 10 10 7 6 9 11 12 11 9 9 11 9 6 5 6 6 7 6 6 6 6 6 6 6
1 1 0 0 1 2 2 2 2 3 3 3 4 4 5 5 5 5 5 6 7 7 6 8 10 10 8 8 8 6 5 5 5 6 6 6 5 5 5 5 5 4 5
1 0 0 1 1 2 2 2 3 3 4 4 4 4 5 5 6 9 8 6 6 6 7 5 5 5 5 5 4 4 4 4 5 5 5 5 5 5 5 4 4 4 4
0 0 1 1 2 2 2 3 4 5 6 7 7 7 6 8 11 11 11 11 11 10 7 5 5 5 5 5 5 5 4 5 5 5 5 5 5 5 5 4 4 4 4
1 1 1 2 2 2 2 3 3 4 5 6 7 8 8 10 10 10 11 10 9 8 4 4 5 5 5 5 5 5 5 5 4 4 4 5 5 5 5 4 4 4 4
1 1 2 2 2 2 3 3 3 4 4 4 5 7 9 9 9 10 10 7 5 4 3 4 5 5 5 5 5 5 5 4 4 4 4 4 4 4 4 4 4 4 4
1 1 1 2 2 2 2 3 3 4 4 5 4 5 7 8 8 8 7 4 4 4 4 4 5 5 5 5 5 4 4 4 4 4 4 5 4 4 4 4 4 4 4
1 2 2 2 2 2 2 3 3 4 4 4 4 4 5 5 4 5 4 4 4 4 5 5 5 5 5 5 5 4 4 4 4 4 4 4 4 4 4 4 4 3 3
1 1 2 2 2 2 2 3 3 4 4 4 4 5 7 5 5 5 5 4 4 5 5 5 5 5 5 5 4 4 5 4 4 4 4 4 4 3 3 3 3 3 2
1 1 2 2 2 2 3 3 3 4 4 5 4 5 8 5 4 4 5 5 5 5 5 5 5 5 5 5 4 4 4 4 4 4 4 4 3 3 3 3 2 2 2
1 2 2 2 2 3 3 3 3 4 4 4 5 4 4 4 4 5 5 5 5 5 5 5 5 5 4 4 4 4 4 5 4 5 4 4 4 3 3 2 2 2 2
1 2 2 2 2 2 3 3 3 4 4 5 5 4 4 5 5 5 5 5 5 5 5 4 4 5 7 5 4 4 4 5 5 4 5 4 4 3 3 2 2 2 1
2 2 2 2 2 3 3 3 4 4 4 4 4 4 5 5 5 5 5 5 6 5 6 6 4 5 6 6 6 5 6 7 7 5 4 3 3 2 2 2 1 1 1
2 2 2 2 2 3 3 3 4 4 4 4 4 5 5 5 5 5 5 5 5 5 5 5 5 6 7 6 6 6 7 7 7 7 4 2 2 1 1 1 1 0 0
Wind_Direction
167 166 165 159 159 166 170 174 173 182 206 243 262 274 277 277 277 275 272 272 270 269 267 265 266 267 265 260 257 257 257 259 270 279 282 287 286 285 287 286 285 284 281
159 157 153 148 155 161 159 162 167 178 240 275 288 285 285 282 281 277 275 274 273 273 274 272 273 274 274 271 265 263 262 261 267 277 284 287 287 287 289 288 287 285 284
153 150 148 151 153 153 150 151 177 197 287 300 293 288 287 286 285 283 280 279 279 278 276 274 275 276 275 277 275 270 269 270 268 274 281 286 290 288 290 289 288 287 288
153 151 153 155 154 147 143 162 234 275 296 304 295 291 289 289 288 289 286 284 281 280 277 274 274 274 275 279 279 277 274 273 272 274 279 284 287 291 291 292 293 293 292
157 158 157 155 153 153 165 186 228 278 291 290 291 293 293 293 293 297 296 291 286 281 279 275 274 275 274 276 278 283 279 273 276 277 280 285 287 292 290 293 290 293 292
157 158 157 161 162 169 186 216 258 280 283 287 291 293 297 298 304 302 298 289 285 279 279 279 278 274 275 275 275 278 276 273 276 276 278 278 282 286 289 289 290 292 292
151 154 158 162 171 192 204 229 255 271 281 288 292 296 297 302 305 303 303 294 287 282 281 282 282 281 281 279 279 277 273 269 266 270 273 275 281 284 287 286 283 284 285
145 151 152 165 185 213 240 252 262 270 280 289 295 298 300 306 309 308 306 296 287 283 280 280 280 281 281 285 283 280 277 273 269 267 270 275 278 282 281 280 281 283 285
147 150 151 176 201 222 243 261 268 272 282 292 298 298 298 304 311 311 310 299 290 288 285 280 281 281 285 286 283 281 281 281 276 274 276 279 282 281 280 280 281 282 287
159 159 171 209 227 239 253 267 273 276 283 295 295 294 295 299 307 309 310 302 296 294 291 285 280 284 291 291 284 283 284 288 292 288 283 282 280 279 278 270 269 274 286
152 163 199 228 247 260 271 273 277 283 287 290 290 293 295 297 301 308 314 306 300 297 293 293 292 298 296 293 288 283 286 292 287 285 284 284 283 281 281 279 273 267 271
153 171 193 262 296 279 274 283 288 288 288 291 293 297 298 300 304 309 313 311 309 299 295 296 300 304 303 299 292 291 294 294 286 285 284 285 288 291 292 290 285 279 274
149 152 102 356 315 286 277 283 288 285 284 291 293 296 303 307 306 308 309 310 310 305 297 298 302 303 302 297 295 293 291 284 283 284 285 289 293 291 293 293 294 293 291
157 144 63 341 314 301 295 283 281 282 284 288 292 295 300 301 303 309 307 307 306 305 301 298 296 295 294 293 296 294 286 283 283 282 287 293 297 295 292 296 299 305 303
142 121 339 309 290 291 292 290 288 287 292 291 291 292 296 298 308 314 313 310 310 308 307 298 296 299 300 301 300 300 296 295 292 289 292 297 299 299 299 301 298 300 295
193 284 288 282 284 285 289 295 291 289 301 301 301 301 297 300 309 313 313 312 313 313 308 296 300 301 301 302 304 304 301 299 299 297 293 292 296 299 302 304 304 300 298
242 258 271 272 276 281 285 289 298 301 299 303 308 311 312 314 316 317 317 315 314 317 310 306 307 306 303 302 301 299 299 300 299 296 295 296 297 298 299 302 303 303 304
262 257 268 267 274 279 284 288 293 300 306 309 310 315 320 322 322 323 323 319 313 318 309 306 306 307 307 304 301 300 300 301 300 299 299 298 297 299 301 302 301 305 307
273 274 277 281 281 282 287 290 292 293 297 303 309 314 322 322 319 323 324 316 310 308 307 305 304 304 304 304 300 298 297 296 300 300 300 302 302 302 303 305 305 312 313
280 295 300 288 282 284 287 287 289 292 297 301 306 314 321 319 317 320 319 313 304 301 302 303 303 302 303 303 303 301 300 301 303 302 304 306 306 305 305 306 308 311 315
293 285 297 294 287 288 288 287 290 292 295 299 304 310 318 311 307 308 310 309 305 303 304 302 299 299 299 301 301 300 302 304 307 307 308 308 309 309 308 306 310 309 311
297 292 289 287 289 289 292 291 292 293 297 300 305 307 311 308 304 305 307 308 308 305 302 298 296 296 297 298 299 300 300 301 305 306 307 308 307 306 305 306 309 312 314
294 292 291 293 294 296 296 296 298 298 300 302 305 307 308 307 306 306 309 310 310 308 305 299 296 299 301 300 297 293 291 294 299 302 303 306 306 305 305 308 309 312 317
288 285 288 293 298 296 297 301 301 301 303 304 305 306 307 307 307 309 310 310 310 309 310 308 302 303 305 305 303 299 295 295 299 299 295 292 299 304 307 311 312 316 324
290 288 291 298 302 301 302 303 304 303 303 304 305 306 307 308 309 311 312 312 313 312 314 313 309 310 313 314 311 307 308 310 309 308 298 291 294 298 305 311 316 323 337
303 300 302 303 301 301 302 302 302 303 302 303 304 304 305 306 308 310 313 315 316 315 315 315 317 318 317 315 312 313 316 319 319 314 308 300 301 300 310 305 310 334 13